Regional Weather Roundup
Issued by NWS Upton, NY

Current Version | Previous Version | Text Only | Print | Product List | Glossary On
Versions: 1 2 3 4 5 6 7 8 9 10 11 12 13 14 15 16 17 18 19 20 21 22 23 24 25 26 27 28 29 30 31 32 33 34 35 36 37 38 39 40 41 42 43 44 45 46 47 48 49 50
000
ASUS41 KOKX 280704
RWROKX

REGIONAL WEATHER ROUNDUP
NATIONAL WEATHER SERVICE NEW YORK NY
300 AM EDT FRI AUG 28 2015

NOTE: "FAIR" INDICATES FEW OR NO CLOUDS BELOW 12,000 FEET WITH NO
SIGNIFICANT WEATHER AND/OR OBSTRUCTIONS TO VISIBILITY.

NYZ071-072-176-178-NJZ106-104-280800-
NEW YORK CITY METRO AREA


CITY           SKY/WX    TMP DP  RH WIND       PRES   REMARKS
CENTRAL PARK   CLEAR     67  53  61 W5        30.16S
LAGUARDIA APRT PTCLDY    68  55  63 NW3       30.12S
KENNEDY INTL   PTCLDY    68  54  60 N6        30.13S
NEWARK/LIBERTY PTCLDY    66  54  65 NW3       30.13S
BRNX BOT. GARD   N/A     64  55  72 CALM      30.13S
TETERBORO      CLEAR     64  53  67 CALM      30.13S
$$

NYZ177-179-078>081-280800-
LONG ISLAND NEW YORK

CITY           SKY/WX    TMP DP  RH WIND       PRES   REMARKS
FARMINGDALE    MOCLDY    68  55  63 N7        30.12S
ISLIP          CLEAR     64  55  72 N6        30.10S
SHIRLEY        CLEAR     61  56  83 N3        30.11F
WESTHAMPTON    CLEAR     61  55  81 N8        30.12S
MONTAUK POINT    N/A     69  59  70 NW6       30.11S
$$

NYZ052-065-067-280800-
HUDSON VALLEY

CITY           SKY/WX    TMP DP  RH WIND       PRES   REMARKS
WHITE PLAINS   MOCLDY    62  53  72 NW5       30.12S
NEWBURGH       NOT AVBL
MONTGOMERY     CLEAR     54  52  93 CALM      30.15S
POUGHKEEPSIE   CLEAR     56  53  90 CALM      30.14R
ALBANY         PTCLDY    58  52  80 CALM      30.14R
$$

NJZ001-105-106-008-010-013-015-019>022-104-280800-
NEW JERSEY

CITY           SKY/WX    TMP DP  RH WIND       PRES   REMARKS
NEWARK/LIBERTY PTCLDY    66  54  65 NW3       30.13S
TETERBORO      CLEAR     64  53  67 CALM      30.13S
CALDWELL       CLEAR     58  53  84 CALM      30.15S
MORRISTOWN     CLEAR     50  46  87 CALM      30.15R
SOMERVILLE     CLEAR     54  52  93 CALM      30.14R
SUSSEX         CLEAR     52  50  93 CALM      30.16S
ANDOVER          N/A     52  51  97 CALM      30.17S
TRENTON        CLEAR     60  55  83 NW3       30.14S
MILLVILLE      CLEAR     56  54  93 CALM      30.14S
ATLANTIC CITY  CLEAR     60  54  80 NW3       30.14S
WRIGHTSTOWN    CLEAR     58  55  89 NW3       30.12S
TOMS RIVER     CLEAR     52  46  82 CALM      30.14S
BELMAR         CLEAR     59  50  72 NW6       30.13S
$$

PAZ047>061-062-071-280800-
EASTERN PENNSYLVANIA

CITY           SKY/WX    TMP DP  RH WIND       PRES   REMARKS
PHILADELPHIA   CLEAR     66  54  65 NW6       30.15S
ALLENTOWN      CLEAR     56  52  86 CALM      30.17R
SCRANTON       CLEAR     56  51  84 E6        30.18S
$$

CTZ002-004>006-009-010-012-RIZ004-006-007-MAZ004-011-015-280800-
SOUTHERN NEW ENGLAND
 IN CT

CITY           SKY/WX    TMP DP  RH WIND       PRES   REMARKS
BRADLEY INTL   CLEAR     56  53  90 NW3       30.11S
HARTFORD       CLEAR     61  56  83 CALM      30.11F
DANBURY        CLEAR     55  51  86 SW5       30.14F
WTRBRY/OXFORD  CLEAR     55  46  71 CALM      30.15S
BRIDGEPORT     PTCLDY    64  55  72 N5        30.11S
MERIDEN        CLEAR     56  52  86 CALM      30.12S
NEW HAVEN      CLEAR     63  55  75 N6        30.11F
CHESTER        NOT AVBL
GROTON         CLEAR     60  57  89 N6        30.09S
WILLIMANTIC    CLEAR     57  54  89 CALM      30.11S

 IN RI

CITY           SKY/WX    TMP DP  RH WIND       PRES   REMARKS
PROVIDENCE     CLEAR     62  56  80 W3        30.09S
BLOCK ISLAND   CLEAR     64  59  82 N6        30.09S
WESTERLY       CLEAR     61  56  83 CALM      30.10S

 IN MA

CITY           SKY/WX    TMP DP  RH WIND       PRES   REMARKS
BOSTON         CLEAR     66  54  65 W8        30.08S
WORCESTER      CLEAR     59  54  83 W9        30.12S
WESTFIELD      CLEAR     55  54  96 CALM      30.11F
PROVINCETOWN   CLEAR     66  55  68 NW10      30.07S
NANTUCKET      PTCLDY    69  58  67 N7        30.07R
$$

ANZ330-335-338-340-345-350-353-355-280800-
COASTAL MARINE OBSERVATIONS


STATION/POSITION TIME  SKY/WX   TEMP    WIND        PRES    VSBY  WAVE
                                AIR SEA DIR/SP/G                  HT/PER
                 (UTC)          (F)     (DEG/KT/KT) (MB)    (MI)  (FT/S)
NY HARB ENTRANCE 0550            72 76  330/ 12/ 14 1019.8          2/10
4S FIRE IS       NOT AVBL
20S FIRE ISLAND  0550            72 75  340/ 12/ 14 1019.4          3/ 9
GREAT SOUTH BAY  0615            64 78   CALM  /  2   N/A
23SW MTP         0650            70 72  350/ 12/ 14 1018.6          3/10
HUDSON CANYON    NOT AVBL
KINGS POINT      0600            69 73   30/  4/  6 1019.4
EXECUTION ROCKS  0600            69     360/  6/  8   N/A
CENTRAL LI SOUND NOT AVBL
EASTERN LI SOUND 0600            67 70  330/ 12/ 14   N/A
ROBBINS REEF     0600            68     320/  7/  9 1019.2
$$


>>>>>>>>>>>>>>>>>>>>>>>>>>>> KEY <<<<<<<<<<<<<<<<<<<<<<<<<<<
>                                                          <
>     SKY/WX - SKY CONDITION/PRESENT WEATHER               <
>     TMP    - TEMPERATURE IN FAHRENHEIT                   <
>     DP     - DEWPOINT IN FAHRENHEIT                      <
>     RH     - RELATIVE HUMIDITY IN PERCENT                <
>     WIND   - DIRECTION AND SPEED IN MPH                  <
>     PRES   - MEAN SEA LEVEL PRESSURE IN INCHES OF HG     <
>     WCI    - WIND CHILL INDEX                            <
>     VSB    - VISIBILITY IN MILES                         <
>     HX     - HEAT INDEX                                  <
>     TC     - TEMPERATURE IN CELSIUS                      <
>     VRB    - VARIABLE WIND DIRECTION                     <
>                                                          <
>>>>>>>>>>>>>>>>>>>>>>>>>>>> KEY <<<<<<<<<<<<<<<<<<<<<<<<<<<




USA.gov is the U.S. government's official web portal to all federal, state and local government web resources and services.